[[{"header":{"parameterUnit":"m.s-1","parameterCategory":1,"la1":30.2991,"la2":30.254,"lo1":-89.0895,"lo2":-89.0444,"dy":0.0017,"dx":0.0017,"nx":28,"ny":28,"refTime":"2023-10-25T03:00:00:Z","depth":0,"parameterNumber":2,"parameterNumberName":"U-component_of_WINDS"},"data":[0,0,0,0,0,0,0,0,0,0,0,0,0,0,0,0,0,0,0,0,0,0,0,0,0,0,0,0,0,0,0,0,0,0,0,0,0,0,0,0,0,0,0,0,0,0,0,0,0,0,0,0,0,0,0,0,0,0,-5.3709,-5.371,0,-5.3775,-5.3776,-5.3776,-5.3763,-5.3762,-5.3761,-5.376,-5.3824,-5.3827,-5.383,0,0,0,0,0,0,0,0,0,0,0,0,0,-5.3572,-5.3575,-5.3709,-5.371,-5.3711,-5.3775,-5.3776,-5.3777,-5.3763,-5.3762,-5.376,-5.3759,-5.3823,-5.3827,-5.383,0,0,0,0,0,0,0,0,0,0,0,0,0,-5.3634,-5.3576,-5.3709,-5.3712,-5.3713,-5.3775,-5.3776,-5.3777,-5.3764,-5.3762,-5.376,-5.3758,-5.3822,-5.3826,-5.3831,-5.3893,0,0,-5.3844,-5.3845,0,0,0,0,0,0,0,0,-5.3631,-5.3639,-5.3711,-5.3712,-5.3713,-5.3759,-5.3751,-5.3815,-5.3764,-5.3744,-5.376,-5.3757,-5.3804,-5.381,-5.3826,-5.3896,-5.3898,-5.3844,-5.3847,-5.3848,-5.385,0,0,0,0,0,0,0,-5.3626,-5.3636,-5.3735,-5.3712,-5.3713,-5.371,-5.3717,-5.3763,-5.3783,-5.3746,-5.3745,-5.3753,-5.3804,-5.3822,-5.3827,-5.3899,-5.3844,-5.3848,-5.385,-5.3852,-5.4026,-5.4028,0,0,0,0,0,0,-5.3621,-5.3633,-5.3733,-5.3737,-5.3667,-5.3714,-5.3722,-5.3746,-5.3783,-5.3787,-5.3755,-5.3752,-5.3815,-5.3822,-5.3829,-5.3905,-5.3848,-5.3852,-5.3855,-5.4024,-5.4027,-5.4029,0,0,0,0,0,0,-5.3618,-5.363,-5.373,-5.3685,-5.3697,-5.3718,-5.3746,-5.3748,-5.3766,-5.3789,-5.3793,-5.3769,-5.3814,-5.3823,-5.3878,-5.3907,-5.3854,-5.3858,-5.4022,-5.4025,-5.4028,-5.4057,0,0,0,0,0,0,-5.3614,-5.3629,-5.3653,-5.3685,-5.37,-5.3777,-5.3748,-5.3751,-5.3773,-5.3771,-5.3803,-5.3807,-5.3813,-5.3871,-5.3882,-5.3912,-5.3861,-5.4019,-5.4023,-5.4027,-5.4053,-5.406,-5.4067,0,0,0,0,0,-5.361,-5.3657,-5.3654,-5.3666,-5.373,-5.3779,-5.3787,-5.3794,-5.3776,-5.38,-5.3815,-5.3806,-5.3903,-5.3877,-5.3889,-5.3921,-5.4017,-5.4022,-5.4026,-5.405,-5.4059,-5.4066,0,0,0,0,0,0,-5.3625,-5.3661,-5.3658,-5.3718,-5.3746,-5.3777,-5.3807,-5.3803,-5.3836,-5.3832,-5.3839,-5.3846,-5.3902,-5.3917,-5.3888,-5.3984,-5.3957,-5.3965,-5.3971,-5.398,-5.3987,-5.3981,-5.3865,0,0,0,0,0,-5.3636,-5.3674,-5.3703,-5.3753,-5.3768,-5.3785,-5.3807,-5.381,-5.3839,-5.385,-5.387,-5.3898,-5.3935,-5.3959,-5.3994,-5.4056,-5.4064,-5.4085,-5.4091,-5.4097,-5.4102,-5.4138,-5.4148,-5.4044,-5.4044,-5.4044,0,0,-5.3657,-5.3682,-5.3705,-5.3757,-5.3779,-5.3818,-5.3795,-5.3836,-5.3865,-5.3856,-5.3909,-5.3925,-5.3957,-5.4016,-5.4043,-5.403,-5.4133,-5.4103,-5.4107,-5.4109,-5.4144,-5.4154,-5.4162,-5.4047,-5.4047,-5.4046,0,0,-5.3717,-5.3739,-5.3784,-5.3808,-5.3842,-5.3854,-5.3865,-5.3898,-5.3909,-5.3962,-5.3957,-5.3992,-5.4055,-5.4079,-5.4099,-5.4172,-5.4165,-5.4184,-5.4218,-5.4253,-5.4261,-5.4268,-5.4294,-5.4304,-5.419,-5.419,-5.419,0,-5.3738,-5.3797,-5.3807,-5.385,-5.3874,-5.387,-5.3916,-5.3938,-5.3982,-5.3998,-5.3984,-5.4065,-5.4086,-5.4151,-5.417,-5.4186,-5.4199,-5.4178,-5.4259,-5.4267,-5.4273,-5.4298,-5.4308,-5.4192,-5.4191,-5.4191,-5.4191,0,-5.3823,-5.3864,-5.3897,-5.3941,-5.3968,-5.4012,-5.4029,-5.4056,-5.4058,-5.4072,-5.4128,-5.4154,-5.4195,-5.4212,-5.4213,-5.4278,-5.4269,-5.4258,-5.423,-5.4285,-5.4309,-5.4318,-5.4194,-5.4194,-5.4193,-5.4193,0,0,-5.3889,-5.3943,-5.3954,-5.3975,-5.4015,-5.4047,-5.4092,-5.4134,-5.4157,-5.4189,-5.4227,-5.4283,-5.4273,-5.4296,-5.4301,-5.4332,-5.4389,-5.4316,-5.4317,-5.4328,-5.4463,-5.4471,-5.4482,-5.4386,-5.4388,-5.4389,-5.446,0,-5.3952,-5.4032,-5.4044,-5.4114,-5.4153,-5.4153,-5.4192,-5.4221,-5.4237,-5.4272,-5.4289,-5.4328,-5.4312,-5.4326,-5.4357,-5.4375,-5.4416,-5.4371,-5.4421,-5.4423,-5.4411,-5.4494,-5.4502,-5.4567,-5.447,-5.4471,-5.4472,0,-5.4034,-5.407,-5.4145,-5.4183,-5.42,-5.4235,-5.4276,-5.431,-5.4344,-5.4353,-5.4381,-5.4383,-5.4431,-5.4404,-5.447,-5.4439,-5.4461,-5.4474,-5.4477,-5.448,-5.4449,-5.4498,-5.4588,-5.4597,-5.4487,-5.4486,-5.4485,0,-5.4075,-5.4143,-5.4197,-5.4215,-5.426,-5.4285,-5.4305,-5.4337,-5.4363,-5.4399,-5.4416,-5.4457,-5.4479,-5.4511,-5.4524,-5.4504,-5.459,-5.4564,-5.4599,-5.4598,-5.4614,-5.4613,-5.4707,-5.4631,-5.4631,-5.4631,-5.4631,0,-5.4142,-5.4188,-5.4216,-5.4249,-5.4301,-5.4315,-5.4366,-5.4385,-5.4415,-5.4452,-5.4454,-5.4489,-5.4506,-5.4544,-5.4555,-5.4609,-5.4619,-5.4627,-5.4629,-5.4626,-5.4625,-5.4639,-5.4634,-5.4634,-5.4633,-5.4633,-5.4632,0,-5.4195,-5.4215,-5.4274,-5.4314,-5.4325,-5.4362,-5.4395,-5.4428,-5.4445,-5.4492,-5.4504,-5.453,-5.4575,-5.4593,-5.4647,-5.4655,-5.4716,-5.4716,-5.4705,-5.4705,-5.4738,-5.4735,-5.4844,-5.4859,-5.4774,-5.4775,-5.4775,0,-5.4235,-5.4271,-5.4316,-5.4341,-5.4363,-5.4404,-5.4431,-5.4448,-5.4475,-5.4519,-5.4546,-5.4592,-5.4628,-5.47,-5.4724,-5.4766,-5.4766,-5.4802,-5.4772,-5.4768,-5.4766,-5.4763,-5.4767,-5.4806,-5.4807,-5.4808,-5.4808,0,-5.4305,-5.4315,-5.4354,-5.4398,-5.4431,-5.4465,-5.4499,-5.452,-5.4542,-5.4574,-5.4621,-5.465,-5.4707,-5.4752,-5.4796,-5.4817,-5.4816,-5.4818,-5.4828,-5.4824,-5.4816,-5.4821,-5.4718,-5.4814,-5.4814,-5.4813,-5.4813,-5.4813,-5.4353,-5.4385,-5.4422,-5.4467,-5.4495,-5.4528,-5.4561,-5.4583,-5.4623,-5.4671,-5.4679,-5.4729,-5.4765,-5.4825,-5.4848,-5.4888,-5.4879,-5.4893,-5.4897,-5.49,-5.4902,-5.4812,-5.4896,-5.4896,-5.4896,-5.4896,-5.4896,0,-5.4422,-5.4448,-5.4488,-5.4537,-5.4573,-5.4572,-5.461,-5.464,-5.4684,-5.4718,-5.4756,-5.4811,-5.4855,-5.4884,-5.493,-5.4956,-5.4957,-5.4967,-5.4965,-5.497,-5.4908,-5.4894,-5.4966,-5.4966,-5.4966,-5.4966,-5.4966,-5.4966,-5.4463,-5.4518,-5.4533,-5.4602,-5.4627,-5.4677,-5.4699,-5.473,-5.4758,-5.4819,-5.4857,-5.4876,-5.4909,-5.4958,-5.4999,-5.5007,-5.5023,-5.5034,-5.504,-5.4981,-5.4974,-5.4967,-5.4954,-5.5037,-5.5037,-5.5099,-5.5099,-5.51]},{"header":{"parameterUnit":"m.s-1","parameterCategory":1,"la1":30.2991,"la2":30.254,"lo1":-89.0895,"lo2":-89.0444,"dy":0.0017,"dx":0.0017,"nx":28,"ny":28,"refTime":"2023-10-25T03:00:00:Z","depth":0,"parameterNumber":3,"parameterNumberName":"V-component_of_WINDS"},"data":[0,0,0,0,0,0,0,0,0,0,0,0,0,0,0,0,0,0,0,0,0,0,0,0,0,0,0,0,0,0,0,0,0,0,0,0,0,0,0,0,0,0,0,0,0,0,0,0,0,0,0,0,0,0,0,0,0,0,3.0405,3.0405,0,3.0369,3.0368,3.0368,3.0369,3.037,3.037,3.0371,3.0327,3.0326,3.0324,0,0,0,0,0,0,0,0,0,0,0,0,0,3.0472,3.0471,3.0405,3.0405,3.0404,3.0369,3.0368,3.0368,3.0369,3.037,3.0371,3.0371,3.0328,3.0326,3.0324,0,0,0,0,0,0,0,0,0,0,0,0,0,3.044,3.047,3.0405,3.0401,3.04,3.0369,3.0368,3.0368,3.0369,3.037,3.0371,3.0371,3.0328,3.0326,3.0324,3.0292,0,0,3.0316,3.0315,0,0,0,0,0,0,0,0,3.0442,3.0437,3.0402,3.0401,3.04,3.0375,3.0376,3.0342,3.0369,3.0381,3.0371,3.0372,3.0342,3.0338,3.033,3.029,3.0288,3.0316,3.0314,3.0313,3.0312,0,0,0,0,0,0,0,3.0444,3.0439,3.039,3.0401,3.04,3.0399,3.0396,3.0369,3.0357,3.038,3.038,3.0376,3.0342,3.0332,3.0329,3.0288,3.0316,3.0314,3.0312,3.0311,3.0224,3.0223,0,0,0,0,0,0,3.0448,3.0441,3.0392,3.0389,3.0423,3.0398,3.0393,3.0382,3.0357,3.0355,3.0375,3.0376,3.0336,3.0331,3.0327,3.0291,3.0313,3.0311,3.0309,3.0224,3.0223,3.0222,0,0,0,0,0,0,3.0449,3.0443,3.0393,3.0415,3.0409,3.0396,3.0382,3.0381,3.0371,3.0354,3.0351,3.0368,3.0336,3.033,3.0302,3.0289,3.031,3.0307,3.0225,3.0224,3.0223,3.0216,0,0,0,0,0,0,3.0451,3.0444,3.0432,3.0415,3.0408,3.037,3.0382,3.0379,3.0368,3.0368,3.0347,3.0344,3.0336,3.0306,3.03,3.0286,3.0306,3.0226,3.0225,3.0223,3.0217,3.0215,3.0213,0,0,0,0,0,3.0453,3.043,3.0432,3.0426,3.0393,3.0369,3.0365,3.0359,3.0367,3.0355,3.0344,3.0344,3.0292,3.0303,3.0296,3.0281,3.0227,3.0225,3.0223,3.0219,3.0215,3.0213,0,0,0,0,0,0,3.0443,3.0427,3.0429,3.04,3.0386,3.0369,3.0354,3.0355,3.0337,3.0338,3.033,3.0325,3.0297,3.0286,3.0299,3.0251,3.026,3.0257,3.0259,3.0256,3.0253,3.0256,3.0303,0,0,0,0,0,3.0438,3.0421,3.0408,3.0383,3.0376,3.0367,3.0356,3.0353,3.0337,3.0331,3.0318,3.0301,3.0281,3.0268,3.0248,3.0216,3.0212,3.0203,3.0201,3.0199,3.0196,3.018,3.0176,3.0216,3.0216,3.0216,0,0,3.0426,3.0416,3.0405,3.0381,3.037,3.0352,3.0361,3.0341,3.0327,3.0327,3.03,3.029,3.0271,3.0242,3.0228,3.0232,3.0184,3.0196,3.0195,3.0193,3.0178,3.0174,3.0171,3.0215,3.0215,3.0215,0,0,3.0396,3.0386,3.0366,3.0355,3.034,3.0334,3.0329,3.0313,3.0307,3.0281,3.0281,3.0264,3.0229,3.0217,3.0205,3.0174,3.0174,3.0168,3.0154,3.0139,3.0136,3.0133,3.0123,3.012,3.0165,3.0165,3.0165,0,3.0382,3.0357,3.0354,3.0335,3.0325,3.0327,3.0306,3.0295,3.0273,3.0266,3.0271,3.023,3.0217,3.0185,3.0178,3.0169,3.0163,3.017,3.0137,3.0134,3.0132,3.0122,3.0118,3.0164,3.0164,3.0164,3.0164,0,3.0342,3.0324,3.0309,3.0291,3.0279,3.0259,3.0253,3.0241,3.024,3.0233,3.0207,3.0193,3.0171,3.0164,3.0161,3.0132,3.0136,3.0139,3.0148,3.0127,3.0118,3.0114,3.0163,3.0164,3.0164,3.0164,0,0,3.0301,3.0286,3.028,3.0273,3.0258,3.0243,3.0223,3.0205,3.0196,3.0181,3.0164,3.0137,3.0141,3.0129,3.0125,3.0112,3.009,3.0117,3.0117,3.0113,3.0059,3.0057,3.0052,3.009,3.0089,3.0089,3.0061,0,3.027,3.0238,3.0236,3.0206,3.019,3.0194,3.0177,3.0165,3.0159,3.0144,3.0136,3.0118,3.0124,3.0117,3.0104,3.0095,3.0079,3.0097,3.0074,3.0073,3.0079,3.0047,3.0044,3.0018,3.0057,3.0057,3.0056,0,3.0229,3.0216,3.0186,3.0175,3.0168,3.0153,3.0138,3.0124,3.0111,3.0107,3.0096,3.0095,3.0074,3.0085,3.0057,3.007,3.006,3.0055,3.0054,3.0051,3.0063,3.0044,3.001,3.0006,3.005,3.0051,3.0051,0,3.0204,3.0179,3.0159,3.0152,3.0139,3.0129,3.0122,3.0111,3.0101,3.0087,3.008,3.0063,3.0054,3.0041,3.0035,3.0043,3.0008,3.0018,3.0004,3.0005,2.9996,2.9996,2.996,2.999,2.999,2.999,2.999,0,3.0169,3.015,3.0148,3.0135,3.0114,3.0113,3.0092,3.0086,3.0076,3.0062,3.0063,3.0049,3.0042,3.0027,3.0023,3.0001,2.9996,2.9993,2.9992,2.9993,2.9994,2.9986,2.9988,2.9989,2.9989,2.9989,2.9989,0,3.0138,3.0135,3.0113,3.0104,3.0101,3.0086,3.0078,3.0065,3.0061,3.0043,3.0038,3.003,3.0013,3.0007,2.9985,2.9982,2.9958,2.9958,2.9963,2.9963,2.995,2.9951,2.9908,2.9902,2.9935,2.9935,2.9934,0,3.0116,3.0102,3.0092,3.0084,3.0078,3.0064,3.0056,3.0054,3.0044,3.003,3.002,3.0003,2.999,2.9963,2.9954,2.9938,2.9938,2.9924,2.9935,2.9938,2.9939,2.994,2.9939,2.9922,2.9921,2.9921,2.9921,0,3.0077,3.0078,3.0066,3.0054,3.0044,3.0034,3.0024,3.0017,3.0014,3.0003,2.9987,2.9977,2.9957,2.9941,2.9926,2.9918,2.9919,2.9918,2.9914,2.9915,2.9919,2.9918,2.9957,2.9918,2.9919,2.9919,2.9919,2.9919,3.005,3.0039,3.0032,3.0019,3.0012,3.0004,2.9993,2.9989,2.9976,2.9961,2.996,2.9943,2.9933,2.9912,2.9904,2.9891,2.9894,2.9888,2.9887,2.9886,2.9885,2.9922,2.9888,2.9888,2.9888,2.9888,2.9888,0,3.0013,3.0009,2.9998,2.9986,2.9976,2.9981,2.9971,2.9962,2.9948,2.9939,2.9927,2.991,2.9895,2.9887,2.9873,2.9863,2.9864,2.9859,2.986,2.9859,2.9882,2.9888,2.986,2.986,2.986,2.986,2.986,2.986,2.9992,2.9975,2.9974,2.9954,2.9949,2.9935,2.9929,2.9921,2.9915,2.9896,2.9885,2.9881,2.9873,2.9858,2.9845,2.9843,2.9837,2.9833,2.9832,2.9854,2.9857,2.9859,2.9864,2.9832,2.9832,2.9809,2.9809,2.9809]}]]